Location: Schommer Observatory
(40.5200°N, 74.4500°W)
Time: 12:04:29
(UTC-04:00)

Envisat - Visible Passes

Search period start: 28 April 2017 00:00
Search period end: 08 May 2017 00:00
Orbit: 764 x 766 km, 98.2° (Epoch: 25 April)

Date Brightness Start Highest point End Pass type
(mag) Time Alt. Az. Time Alt. Az. Time Alt. Az.
28 Apr 3.4 21:17:25 10° S 21:22:26 63° WSW 21:27:29 10° NNW visible
29 Apr 3.1 20:40:49 10° SSE 20:45:46 58° ENE 20:50:46 10° N visible
29 Apr 5.5 22:22:06 10° SW 22:25:09 16° W 22:28:13 10° NW visible
30 Apr 4.4 21:43:32 10° SSW 21:48:09 35° W 21:52:49 10° NNW visible
01 May 3.1 21:06:17 10° S 21:11:22 81° WSW 21:16:28 10° NNW visible
02 May 3.4 20:29:56 10° SE 20:34:45 46° ENE 20:39:36 10° N visible
02 May 5.2 22:10:16 10° SW 22:13:58 20° W 22:17:42 10° NW visible
03 May 4.0 21:32:12 10° S 21:37:02 45° W 21:41:55 10° NNW visible
04 May 3.0 20:55:14 10° SSE 21:00:18 81° ENE 21:05:24 10° N visible
04 May 5.7 22:38:33 10° WSW 22:39:54 11° W 22:41:14 10° WNW visible
05 May 3.7 20:19:08 10° SE 20:23:45 36° ENE 20:28:23 10° N visible
05 May 4.9 21:58:38 10° SSW 22:02:49 26° W 22:07:01 10° NW visible
06 May 3.5 21:20:57 10° S 21:25:56 57° W 21:30:57 10° NNW visible
07 May 3.1 20:44:15 10° SSE 20:49:15 64° ENE 20:54:17 10° N visible
07 May 5.5 22:25:59 10° WSW 22:28:41 14° W 22:31:24 10° WNW visible
